Regional Weather Roundup
Issued by NWS Midland/Odessa, TX

Home | Current Version | Previous Version | Text Only | Print | Product List | Glossary On
Versions: 1 2 3 4 5 6 7 8 9 10 11 12 13 14 15 16 17 18 19 20 21 22 23 24 25 26 27 28 29 30 31 32 33 34 35 36 37 38 39 40 41 42 43 44 45 46 47 48 49 50
000
ASUS44 KMAF 061410
RWRMAF
MIDLAND AREA WEATHER ROUNDUP
NATIONAL WEATHER SERVICE MIDLAND TX
900 AM CDT MON JUL 06 2015

...IN SOUTHWEST TEXAS AND SOUTHEAST NEW MEXICO...

CITY           SKY/WX    TMP DP  RH WIND       PRES   REMARKS
ALPINE         MOSUNNY   78  61  56 SW14      30.18R
ANDREWS        PTSUNNY   79  67  66 S13G18    30.01R
ARTESIA        SUNNY     82  61  47 W9        30.01R
BIG SPRING     MOSUNNY   79  69  71 S17G24    30.02R
CARLSBAD       SUNNY     81  63  54 VRB3      29.99R
DRYDEN           N/A     80  71  74 S6        30.00R
FORT STOCKTON  MOSUNNY   81  65  58 S9        30.01R
GUAD PASS      MOSUNNY   71  59  65 SW23G36   30.14S
HOBBS          SUNNY     75  66  73 S10       30.02S
MARFA          PTSUNNY  N/A N/A N/A S5        30.19R
MIDLAND AIRPK  SUNNY     80  68  67 S15G21    30.00S
MIDLAND INTL   SUNNY     79  69  71 S15       30.00R
ODESSA         SUNNY     79  67  66 S18       30.01S
PECOS          PTSUNNY   79  62  56 CALM      29.98R
PRESIDIO       FAIR      79  65  62 MISG      30.05R
SEMINOLE       SUNNY     78  65  65 S10       30.01S
SNYDER         MOSUNNY   77  71  81 S16       30.00R
WINK           PTSUNNY   80  65  59 SE12      29.98R
$$
...OTHER STATIONS IN TEXAS...

CITY           SKY/WX    TMP DP  RH WIND       PRES   REMARKS
ABILENE        MOSUNNY   81  71  71 S18G26    29.99R
AMARILLO       SUNNY     75  65  70 SW14      30.01R
AUSTIN         PTSUNNY   79  74  84 S14G22    30.05R
BROWNSVILLE    SUNNY     83  77  82 S14       30.04R
CORPUS CHRISTI PTSUNNY   83  76  79 S16G24    30.04R
DALLAS FTW     CLOUDY    82  72  71 S21G29    30.00S
DEL RIO        CLOUDY    79  71  76 SE14      29.97S
EL PASO        PTSUNNY   76  60  57 SW14      30.06R
HOUSTON INT    PTSUNNY   84  77  79 S10       30.09R
LUBBOCK        MOSUNNY   77  66  68 S17       30.00S
SAN ANGELO     MOSUNNY   79  70  74 S14       30.01R
SAN ANTONIO    PTSUNNY   79  72  79 S12       30.06R
WACO           PTSUNNY   81  72  74 S16       30.05R
WICHITA FALLS  NOT AVBL
$$
...OTHER LOCATIONS IN NEW MEXICO...

CITY           SKY/WX    TMP DP  RH WIND       PRES   REMARKS
ALAMAGORDO     MOSUNNY   73  59  60 SE7       30.08S
ALBUQUERQUE    PTSUNNY   69  59  70 W3        30.18R
CANNON AFB     MOSUNNY   73  65  75 S7        30.03R
CLOVIS         SUNNY     72  63  73 S10         N/A
HOLLOMAN AFB   MOSUNNY   74  60  62 SE7       30.06R
ROSWELL        MOSUNNY   79  60  52 CALM      30.00R
RUIDOSO        PTSUNNY   63  55  77 NW8       30.26R
SANTA FE       CLOUDY    65  56  72 N7        30.20R
TRUTH OR CONSE MOSUNNY   75  55  49 VRB6      30.13R
TUCUMCARI      MOSUNNY   78  58  49 NE20G26   30.01R
$$


USA.gov is the U.S. government's official web portal to all federal, state and local government web resources and services.